Location: Seattle
(47.6064°N, 122.3308°W)
Time: 04:45:54
(UTC-07:00)

Explorer 7 - Pass Details

Date: 10 August 2021
Orbit: 484 x 676 km, 50.3° (Epoch: 15 September)

Event Time Altitude Azimuth Distance (km) Brightness Sun altitude
Exits shadow 05:14:02 - 275° (W) 2,112 9.3 -7.5°
Reaches altitude 10° 05:15:09 10° 278° (W) 1,671 8.8 -7.3°
Maximum altitude 05:18:51 56° 357° (N) 594 7.2 -6.8°
Drops below altitude 10° 05:22:41 10° 77° (ENE) 1,725 10.8 -6.3°
Sets 05:24:58 0° 82° (E) 2,637 11.8 -5.9°
